Nantucket, MA

8:19 PM EDT on May 22, 2017 (GMT -0400)
Nantucket Memorial

Weather History for KACK - May, 2013

Change the Weather History Date:

Wednesday, May 1, 2013

  Actual Average Record
Temperature  
Mean Temperature 48 °F -  
Max Temperature 59 °F 58 °F 71 °F (1974)
Min Temperature 39 °F 41 °F 33 °F (1967)
Degree Days  
Heating Degree Days 17    
Moisture  
Dew Point 42 °F    
Average Humidity 83    
Maximum Humidity 93    
Minimum Humidity 51    
Precipitation  
Precipitation 0.00 in - - ()
Sea Level Pressure  
Sea Level Pressure 30.42 in    
Wind  
Wind Speed 7 mph (ENE)    
Max Wind Speed 12 mph    
Max Gust Speed -    
Visibility 6 miles    
Events Fog    
Averages and records for this station are not official NWS values.
T = Trace of Precipitation, MM = Missing Value Source: NWS Daily Summary

Daily Weather History Graph

Daily Weather History Graph

Search for Another Location

Airport or City:

Trip Planner

Search our weather history database for the weather conditions in past years. The results will help you decide how hot, cold, wet, or windy it might be!

Date:

Astronomy

May. 01, 2013 Rise Set
Actual Time 5:37 AM EDT 7:37 PM EDT
Civil Twilight 5:07 AM EDT 8:07 PM EDT
Nautical Twilight 4:30 AM EDT 8:44 PM EDT
Astronomical Twilight 3:51 AM EDT 9:24 PM EDT
Moon 12:45 AM EDT (5/1) 11:12 AM EDT (5/1)
Length of Visible Light 15h 00m
Length of Day
14h 00m
Waning Gibbous, 59% of the Moon is Illuminated
May 1
Waning Gibbous
May 2
Last Quarter
May 9
New
May 18
First Quarter
May 25
Full

Hourly Weather History & Observations

Time (EDT) Temp. Windchill Dew Point Humidity Pressure Visibility Wind Dir Wind Speed Gust Speed Precip Events Conditions
12:53 AM 44.1 °F 40.8 °F 39.0 °F 82% 30.36 in 10.0 mi East 5.8 mph - N/A   Mostly Cloudy
1:02 AM 44.6 °F 42.2 °F 39.2 °F 81% 30.36 in 10.0 mi ENE 4.6 mph - N/A   Scattered Clouds
1:53 AM 39.9 °F 35.8 °F 37.0 °F 89% 30.36 in 10.0 mi NE 5.8 mph - N/A   Clear
2:51 AM 42.8 °F 39.3 °F 39.2 °F 87% 30.37 in 10.0 mi East 5.8 mph - N/A   Scattered Clouds
2:53 AM 43.0 °F 38.8 °F 39.0 °F 86% 30.37 in 10.0 mi East 6.9 mph - N/A   Mostly Cloudy
3:06 AM 44.6 °F 41.4 °F 42.8 °F 93% 30.37 in 9.0 mi East 5.8 mph - N/A   Mostly Cloudy
3:18 AM 44.6 °F 40.7 °F 42.8 °F 93% 30.36 in 1.5 mi East 6.9 mph - N/A   Overcast
3:27 AM 44.6 °F 39.7 °F 42.8 °F 93% 30.36 in 0.5 mi East 9.2 mph - N/A Fog Fog
3:38 AM 44.6 °F 40.7 °F 42.8 °F 93% 30.37 in 0.2 mi East 6.9 mph - N/A Fog Fog
3:45 AM 44.6 °F 40.7 °F 42.8 °F 93% 30.37 in 0.2 mi East 6.9 mph - N/A Fog Fog
3:53 AM 45.0 °F 40.1 °F 43.0 °F 93% 30.37 in 0.2 mi East 9.2 mph - N/A Fog Fog
4:32 AM 44.6 °F 40.7 °F 42.8 °F 93% 30.38 in 0.5 mi ENE 6.9 mph - N/A Fog Fog
4:41 AM 44.6 °F 41.4 °F 42.8 °F 93% 30.37 in 0.2 mi East 5.8 mph - N/A Fog Fog
4:53 AM 45.0 °F 41.8 °F 43.0 °F 93% 30.37 in 0.2 mi NE 5.8 mph - N/A Fog Fog
5:06 AM 44.6 °F 42.2 °F 42.8 °F 93% 30.37 in 0.2 mi NE 4.6 mph - N/A Fog Fog
5:20 AM 44.6 °F 41.4 °F 42.8 °F 93% 30.37 in 0.2 mi ENE 5.8 mph - N/A Fog Fog
5:53 AM 44.1 °F 40.8 °F 42.1 °F 93% 30.39 in 0.2 mi ENE 5.8 mph - N/A Fog Fog
6:07 AM 44.6 °F 40.7 °F 42.8 °F 93% 30.40 in 0.2 mi ENE 6.9 mph - N/A Fog Fog
6:53 AM 44.1 °F 39.0 °F 42.1 °F 93% 30.43 in 0.2 mi NE 9.2 mph - N/A Fog Fog
7:08 AM 44.6 °F 38.8 °F 42.8 °F 93% 30.43 in 0.2 mi NE 11.5 mph - N/A Fog Fog
7:53 AM 45.0 °F 40.1 °F 43.0 °F 93% 30.44 in 0.5 mi NE 9.2 mph - N/A Fog Fog
8:42 AM 46.4 °F 42.4 °F 44.6 °F 93% 30.45 in 1.8 mi NNE 8.1 mph - N/A   Overcast
8:47 AM 46.4 °F 42.4 °F 44.6 °F 93% 30.45 in 3.0 mi NNE 8.1 mph - N/A   Overcast
8:53 AM 46.9 °F - 45.0 °F 93% 30.45 in 4.0 mi NE 8.1 mph - N/A   Overcast
9:46 AM 51.8 °F - 44.6 °F 76% 30.45 in 10.0 mi NE 10.4 mph - N/A   Partly Cloudy
9:53 AM 52.0 °F - 44.1 °F 74% 30.46 in 10.0 mi ENE 8.1 mph - N/A   Partly Cloudy
10:53 AM 55.0 °F - 45.0 °F 69% 30.47 in 10.0 mi NE 9.2 mph - N/A   Clear
11:53 AM 57.0 °F - 44.1 °F 62% 30.48 in 10.0 mi NNE 10.4 mph - N/A   Clear
12:53 PM 57.0 °F - 42.1 °F 57% 30.47 in 10.0 mi ENE 9.2 mph - N/A   Clear
1:53 PM 57.9 °F - 43.0 °F 58% 30.47 in 10.0 mi ENE 11.5 mph - N/A   Clear
2:53 PM 57.9 °F - 42.1 °F 56% 30.46 in 10.0 mi ENE 11.5 mph - N/A   Clear
3:53 PM 57.9 °F - 41.0 °F 53% 30.46 in 10.0 mi East 9.2 mph - N/A   Clear
4:53 PM 57.9 °F - 39.9 °F 51% 30.45 in 10.0 mi ENE 8.1 mph - N/A   Clear
5:53 PM 55.0 °F - 41.0 °F 59% 30.45 in 10.0 mi NE 8.1 mph - N/A   Clear
6:53 PM 51.1 °F - 41.0 °F 68% 30.46 in 10.0 mi ENE 5.8 mph - N/A   Clear
7:53 PM 46.0 °F 42.5 °F 41.0 °F 83% 30.47 in 10.0 mi NE 6.9 mph - N/A   Clear
8:53 PM 44.1 °F 40.8 °F 39.9 °F 85% 30.47 in 10.0 mi ENE 5.8 mph - N/A   Clear
9:53 PM 42.1 °F 40.2 °F 37.9 °F 85% 30.47 in 10.0 mi ENE 3.5 mph - N/A   Clear
10:53 PM 43.0 °F 41.3 °F 39.0 °F 86% 30.46 in 10.0 mi ENE 3.5 mph - N/A   Clear
11:53 PM 43.0 °F 41.3 °F 39.9 °F 89% 30.46 in 10.0 mi NE 3.5 mph - N/A   Clear